Location: Austin
(30.3000°N, 97.7500°W)
Time: 01:53:53
(UTC-05:00)

Yuri Rocket - Pass Details

Date: 15 May 2024
Orbit: 567 x 1906 km, 28.2° (Epoch: 19 May)

Event Time Altitude Azimuth Distance (km) Brightness Sun altitude
Rises 21:32:28 0° 257° (WSW) 2,811 7.1 -14.9°
Reaches altitude 10° 21:34:34 10° 255° (WSW) 1,979 6.2 -15.3°
Maximum altitude 21:39:02 67° 173° (S) 776 3.3 -16.1°
Enters shadow 21:42:32 23° 96° (E) 1,684 4.8 -16.7°
